Tracking 18840 objects as of 20-November-2017
HD Live streaming from Space Station
objects crossing your sky now

FENGYUN 1C DEB

Track FENGYUN 1C DEB now!
10-day predictions


NORAD ID: 32226
Int'l Code: 1999-025CVY
Perigee: 595.8 km
Apogee: 642.2 km
Inclination: 99.5 °
Period: 96.9 minutes
Semi major axis: 6990 km
RCS: 0.006 m2 (small)
Launch date: May 10, 1999
Source: People's Republic of China (PRC)
Launch site: Taiyaun Space Center, China (TSC)

Note: This is SATELLITE DEBRIS
aabbcc
Your satellite tracking list
Your tracking list is empty




NASA's NSSDC Master Catalog

Two Line Element Set (TLE):
1 32226U 99025CVY 17321.32642548  .00011127  00000-0  12818-2 0  9992
2 32226  99.4745  90.9523 0033167 220.8021 139.0705 14.85538942550125
Source of the keplerian elements: AFSPC